Location: F�rwald
(48.6833°N, 15.5333°E)
Time: 07:31:11
(UTC+00:00)

Daily predictions for brighter satellites

Satellite Brightness Start Highest point End
(mag) Time Altitude Azimuth Time Altitude Azimuth Time Altitude Azimuth
Cosmos 2263 Rocket 4.4 19:44:04 10° NW 19:48:15 21° W 19:52:26 10° SSW
MetOp-B 4.3 19:47:33 10° SSE 19:52:55 84° WSW 19:58:18 10° NNW
Cosmos 1110 Rocket 4.0 19:48:28 10° S 19:53:35 64° ESE 19:58:46 10° NNE
Cosmos 1908 3.2 19:52:17 10° N 19:56:11 83° E 20:00:01 10° S
In-Cosmos 22 4.3 19:51:18 10° SSW 19:56:35 78° WNW 20:01:55 10° N
Cosmos 1544 Rocket 3.8 19:53:03 10° N 19:57:30 61° ENE 20:01:53 10° SSE
Cosmos 1626 2.4 19:56:10 10° S 19:59:43 49° E 20:03:19 10° NNE
FALCON 9 DEB 3.2 19:58:28 10° WSW 20:01:54 79° NNW 20:05:20 10° ENE
Cosmos 1455 Rocket 3.3 19:57:26 10° NNW 20:01:55 76° W 20:06:22 10° S
Cosmos 2100 Rocket 4.1 19:56:52 10° N 20:03:16 89° W 20:09:36 10° S
ARIANE 5 R/B 2.8 20:01:18 10° SSE 20:05:43 68° ENE 20:10:12 10° N
BREEZE-M DEB (TANK) 2.7 20:05:23 10° SW 20:07:49 52° SSE 20:12:51 10° ENE
ATLAS 3B R/B 2.8 20:01:43 10° SSW 20:07:59 51° ESE 20:14:29 10° NE
Cosmos 2333 4.3 20:05:25 10° S 20:11:03 59° ESE 20:16:40 10° NE
Cosmos 1461 4.1 20:07:34 10° NW 20:11:21 33° WSW 20:14:59 10° S
ATLAS CENTAUR R/B 1.6 20:09:52 10° NW 20:14:12 78° SW 20:18:22 12° SSE
Cosmos 2173 Rocket 4.2 20:09:52 10° NNW 20:16:16 78° W 20:22:36 10° S
Cosmos 405 3.1 20:13:29 10° N 20:16:55 58° ENE 20:19:49 13° SSE
Cosmos 2016 Rocket 4.0 20:14:06 10° N 20:20:14 78° E 20:26:21 10° SSE
SL-4 R/B 3.3 20:18:58 10° S 20:21:55 19° SE 20:24:44 10° E
Cosmos 2219 Rocket 2.4 20:18:20 10° S 20:23:50 53° ESE 20:29:21 10° NE
Meteor 2-5 Rocket 4.0 20:18:57 10° SSE 20:24:14 48° E 20:29:39 10° NNE
Cosmos 2333 Rocket 2.3 20:19:29 10° SSW 20:25:09 63° ESE 20:30:49 10° NNE
FALCON 9 DEB 3.0 20:24:20 10° SW 20:27:22 50° SSE 20:30:26 10° ENE
ERS-1 Rocket 3.0 20:24:08 12° SSE 20:28:53 85° ENE 20:33:58 10° NNW
Geosat 4.0 20:24:37 13° SSE 20:29:09 89° WSW 20:34:13 10° NNW
Cosmos 1025 Rocket 3.2 20:25:20 10° SSW 20:29:43 77° WNW 20:34:06 10° N
Cosmos 1844 4.3 20:25:20 10° NW 20:30:43 50° WSW 20:36:02 10° S
Lacrosse 5 rocket 1.3 20:27:25 10° WSW 20:31:05 72° NNW 20:34:41 10° NE
OPS 8737 4.4 20:27:29 10° SW 20:31:27 89° NW 20:34:33 10° NE
Cosmos 1536 Rocket 3.6 20:28:15 10° S 20:32:39 64° E 20:37:04 10° NNE
Spot 2 Rocket 3.9 20:28:44 10° S 20:33:44 62° WSW 20:38:48 10° NNW
Cosmos 2228 4.0 20:30:03 10° N 20:34:09 36° ENE 20:37:16 15° SE
USA 215 4.4 20:29:51 10° ENE 20:34:30 20° ESE 20:38:12 13° SSE
Cosmos 1725 Rocket 4.0 20:28:26 10° N 20:34:39 86° E 20:40:27 12° S
Cosmos 1331 Rocket 4.5 20:32:18 10° SW 20:37:30 64° WNW 20:42:47 10° NNE
DNEPR-1 R/B 3.9 20:36:08 10° NW 20:40:16 55° SW 20:43:36 16° SSE
FALCON 9 DEB 2.7 20:39:54 10° WSW 20:43:00 85° SSE 20:46:06 10° ENE
CARTOSAT-1 4.3 20:40:20 10° S 20:44:29 48° W 20:48:42 10° NNW
Cosmos 2237 Rocket 3.3 20:41:59 16° SE 20:45:09 25° ESE 20:49:39 10° NE
Terra 1.8 20:41:19 15° SSE 20:45:14 85° ENE 20:50:02 10° NNW
SL-14 R/B 3.4 20:41:55 10° SSW 20:45:56 76° W 20:49:59 10° N
Cosmos 2360 Rocket 3.3 20:42:52 10° SW 20:48:19 48° NW 20:53:47 10° NNE
FALCON 9 DEB 2.7 20:47:50 10° WSW 20:50:57 79° SSE 20:54:04 10° ENE
Cosmos 1953 4.4 20:47:58 10° NW 20:51:12 23° W 20:54:26 10° SW
Cosmos 2322 Rocket 4.3 20:47:47 10° WSW 20:52:47 30° NW 20:57:49 10° NNE
SPOT 5 3.3 20:48:16 13° S 20:52:48 61° WSW 20:57:36 10° NNW
Cosmos 1455 3.6 20:49:43 10° NNE 20:52:59 26° ENE 20:55:06 16° ESE
FALCON 9 DEB 2.8 20:50:26 10° WSW 20:53:33 86° NNW 20:56:41 10° ENE
Meteor 1-24 Rocket 3.6 20:51:24 13° S 20:56:14 71° E 21:01:45 10° NNE
H-2A R/B 3.5 20:52:50 10° NNE 20:56:54 61° ESE 20:59:53 17° S
Cosmos 1302 Rocket 4.1 20:53:32 10° SSW 20:58:48 80° WNW 21:04:05 10° NNE
Cosmos 1300 3.4 20:59:46 10° NNW 21:03:28 49° W 21:06:19 16° SSW
Resurs 01 Rocket 4.4 21:04:48 10° WSW 21:06:09 11° W 21:07:28 10° WNW
USA 267 4.0 21:03:48 10° E 21:10:06 53° NNE 21:16:26 10° WNW
Cosmos 1340 4.1 21:08:32 10° SW 21:12:01 36° WNW 21:15:33 10° N
Cosmos 2322 4.3 21:10:19 10° SW 21:15:53 59° WNW 21:21:30 10° NNE
Cosmos 2278 Rocket 2.2 21:11:22 10° NNW 21:17:05 86° ENE 21:20:55 22° SSE
COSMOS 2428 2.9 21:11:46 10° SSW 21:17:31 79° WNW 21:23:18 10° NNE
GENESIS II 4.2 21:20:01 19° SSW 21:22:38 56° SE 21:26:28 10° NE
Cosmos 389 Rocket 2.5 21:19:13 10° NNW 21:22:39 73° W 21:24:17 29° S
NOSS 0 Rocket 4.0 21:17:59 13° SSW 21:23:31 64° ESE 21:29:42 10° NE
Cosmos 1726 Rocket 3.6 21:19:55 10° N 21:24:24 74° ENE 21:26:53 26° SSE
Cosmos 2058 Rocket 3.6 21:20:29 10° N 21:24:48 46° ENE 21:27:08 24° SE
Cosmos 1867 3.9 21:20:15 10° NW 21:25:36 54° WSW 21:28:54 23° S
Cosmos 968 Rocket 4.3 21:25:21 10° NW 21:30:09 42° WSW 21:33:29 18° SSW
SJ 16-02 3.1 21:33:49 10° N 21:37:23 24° NE 21:40:30 12° ESE
Meteor 2-10 Rocket 4.0 21:34:26 10° NNW 21:39:21 51° W 21:42:36 20° SSW
Cosmos 1606 Rocket 3.9 21:35:36 10° NNW 21:40:01 62° W 21:42:32 24° S
Cosmos 1992 Rocket 4.1 21:37:59 13° SSW 21:42:39 78° WNW 21:47:55 10° NNE
Cosmos 1943 Rocket 3.4 21:37:40 10° NNW 21:42:40 34° NE 21:47:24 11° ESE
Spot 4 3.9 21:41:10 26° SSE 21:43:49 69° ENE 21:48:35 10° N
Cosmos 1892 Rocket 3.5 21:43:59 27° S 21:46:21 81° E 21:50:50 10° NNE
Cosmos 1891 Rocket 4.5 21:43:00 10° N 21:49:12 87° E 21:53:08 25° S
Cosmos 1346 Rocket 3.7 21:47:04 16° SW 21:49:59 46° WNW 21:53:54 10° N
Meteor 1-4 Rocket 3.6 21:48:06 10° N 21:51:17 33° ENE 21:52:29 25° ESE
Cosmos 1354 Rocket 4.1 21:46:44 10° NNW 21:52:05 72° WSW 21:55:00 27° S
ATLAS CENTAUR R/B 3.9 21:50:54 10° W 21:52:26 12° WSW 21:54:00 10° SW
Cosmos 1513 Rocket 4.4 21:46:31 10° N 21:52:38 89° E 21:56:24 25° S
Cosmos 1980 3.7 21:51:14 16° SSW 21:55:48 87° ESE 22:01:32 10° NNE
Cosmos 1441 Rocket 3.4 21:54:42 35° SSE 21:55:59 55° E 21:59:44 10° NNE
BREEZE-M DEB (TANK) 3.0 21:48:32 10° SW 21:57:32 52° SSE 22:00:36 10° E
ATLAS 3B R/B 3.7 21:52:26 10° WSW 21:58:47 47° NW 22:05:23 10° NE
ALOS 2 2.9 21:57:54 28° SE 22:00:01 56° ENE 22:04:20 10° N
NOSS 3-1 (C) 4.1 21:59:23 25° SE 22:01:00 29° ESE 22:06:05 10° NE
SL-4 R/B 1.7 21:57:02 10° WSW 22:01:05 73° SSE 22:04:51 10° ENE
FALCON 9 DEB 4.1 22:00:07 10° W 22:03:09 44° NNW 22:06:11 10° ENE
Cosmos 724 4.4 22:01:02 10° NW 22:07:16 79° NE 22:11:24 22° SE
Cosmos 2219 Rocket 3.9 22:03:00 10° WSW 22:08:04 32° NW 22:13:09 10° NNE
Cosmos 1607 4.3 22:03:22 10° NW 22:09:34 52° WSW 22:12:53 27° S
Cosmos 2333 Rocket 4.1 22:04:55 10° WSW 22:09:51 29° NW 22:14:48 10° NNE
Cosmos 1703 3.2 22:08:43 37° S 22:10:12 82° E 22:14:11 10° NNE
Lacrosse 5 rocket 3.5 22:07:36 10° WNW 22:10:38 25° NNW 22:13:39 10° NE
Cosmos 1626 Rocket 3.8 22:12:18 33° SSE 22:14:02 55° E 22:18:23 10° NNE
USA 215 3.2 22:11:50 10° ENE 22:18:21 67° SE 22:24:51 10° SW
FALCON 9 DEB 4.5 22:15:54 10° WNW 22:18:49 37° N 22:21:44 10° ENE
Meteor 2-1 Rocket 4.4 22:13:47 10° NNW 22:19:15 65° W 22:22:14 27° S
Cosmos 2346 Rocket 4.4 22:16:23 25° S 22:20:09 87° W 22:26:24 10° N
Cosmos 1602 Rocket 4.1 22:20:35 32° SSE 22:22:15 49° E 22:26:34 10° NNE
Terra 4.2 22:21:26 10° WSW 22:23:38 13° W 22:25:51 10° WNW
COBE Rocket 4.0 22:22:10 31° S 22:24:35 69° WSW 22:29:30 10° NNW
SL-16 R/B 2.4 22:23:55 29° S 22:26:35 55° ESE 22:32:07 10° NE
FALCON 9 DEB 4.4 22:23:53 10° WNW 22:26:51 37° N 22:29:48 10° ENE
Cosmos 1455 3.7 22:25:17 10° NNW 22:28:31 26° W 22:29:59 20° SW
Cosmos 2237 Rocket 2.6 22:23:44 13° SW 22:28:48 60° WNW 22:34:23 10° NNE
Cosmos 1464 Rocket 4.4 22:24:26 10° NNW 22:30:38 55° W 22:34:26 24° SSW
Cosmos 1184 Rocket 4.2 22:29:49 23° WSW 22:31:07 32° WNW 22:34:05 10° N
Cosmos-2242 4.0 22:27:21 10° N 22:31:31 40° ENE 22:33:34 25° SE
Cosmos 1328 3.6 22:31:00 41° S 22:32:16 90° SE 22:36:13 10° N
Cosmos 2369 Rocket 3.1 22:31:21 10° NNW 22:36:52 45° NE 22:41:39 13° ESE
Cosmos 1634 Rocket 4.2 22:33:29 10° N 22:39:48 65° ENE 22:43:33 25° SSE
GEOS 3 Rocket 4.0 22:38:08 30° S 22:40:25 48° SW 22:45:36 10° NW
ATLAS CENTAUR R/B 3.5 22:40:45 16° SW 22:45:12 82° SE 22:59:25 10° NE
PSLV R/B 4.4 22:46:27 10° NNE 22:50:33 39° E 22:52:04 29° SE
USA 32 4.0 22:45:37 10° N 22:50:53 80° W 22:53:23 32° S
Aureole 3 3.5 22:47:32 10° N 22:51:24 76° E 22:53:19 34° SSE
NOSS 2-3 (D) 4.0 22:51:08 37° SSE 22:52:06 44° ESE 22:56:36 10° NE
USA 267 3.2 22:46:54 12° SE 22:52:57 78° SW 22:59:33 10° WNW
Cosmos 1763 Rocket 4.4 22:55:46 25° SE 22:57:39 33° ESE 23:02:14 10° NE
Cosmos 1812 Rocket 3.6 22:53:25 10° NNW 22:57:46 69° W 22:59:21 37° SSW
Cosmos 2278 Rocket 4.1 22:56:56 10° WNW 23:00:23 17° W 23:02:45 13° SW
BREEZE-M DEB (TANK) 3.4 22:57:25 10° W 23:01:17 82° N 23:13:58 10° E
Cosmos 2297 3.9 22:58:04 10° NW 23:03:37 57° WSW 23:06:10 31° S
Thor Agena Rocket 3.5 23:01:59 10° NNE 23:07:16 80° ESE 23:09:46 32° S
SAR-Lupe-2 3.8 23:04:53 10° N 23:08:26 60° WNW 23:09:33 38° SW
NOSS 2-3 (C) 3.6 23:07:22 38° SSW 23:08:49 65° SE 23:13:39 10° NE
NOSS 8 (E) 4.3 23:12:07 53° SE 23:12:11 53° SE 23:15:06 10° NE
Resurs 1-4 Rocket 4.2 23:11:49 10° NE 23:14:58 16° E 23:18:06 10° SE
SJ 16-02 1.9 23:11:59 10° NNW 23:16:10 44° WSW 23:17:28 34° SSW
FALCON 9 DEB 3.8 23:12:59 10° WNW 23:16:21 54° NNE 23:19:42 10° E
EP 2 4.4 23:19:35 70° S 23:19:49 76° SE 23:22:52 10° NE
Meteor 1-11 4.5 23:19:57 26° SSW 23:23:05 60° WNW 23:28:38 10° N
Exosat Rocket 4.2 23:20:17 27° S 23:23:30 51° ESE 23:28:36 10° NE
GP-B 3.5 23:19:52 10° N 23:24:12 52° W 23:26:01 31° SW
Meteor 1-27 4.2 23:18:54 10° NNW 23:24:27 70° W 23:27:14 30° S
Meteor 1-4 Rocket 4.4 23:23:42 10° NW 23:26:01 17° W 23:26:36 16° WSW
In-Cosmos 22 Rocket 4.2 23:23:39 30° S 23:26:28 75° E 23:31:56 10° NNE
Cosmos 1943 Rocket 2.5 23:21:19 10° NW 23:26:35 47° WSW 23:28:53 30° SSW
Cosmos 1825 Rocket 3.5 23:25:14 36° S 23:27:01 88° W 23:31:30 10° N
Cosmos 1932 4.4 23:24:23 10° NW 23:30:39 84° NE 23:36:16 13° SE
X-37B 2.7 23:33:13 16° ESE 23:33:13 16° ESE 23:34:01 10° ESE
Cosmos 1892 2.6 23:30:16 42° SSW 23:31:31 85° W 23:35:25 10° N
Cosmos 2142 Rocket 4.5 23:28:15 10° NNW 23:34:23 75° W 23:37:52 27° S
Cosmos 540 Rocket 4.3 23:32:30 25° SSE 23:34:47 39° ESE 23:39:31 10° NE
Helios 1A 3.8 23:32:32 21° SE 23:35:03 47° ENE 23:39:06 10° N
USA 305 4.4 23:35:05 21° SE 23:35:09 21° SE 23:38:22 10° E
Cosmos 1437 Rocket 3.3 23:31:39 10° N 23:35:27 50° ENE 23:37:15 27° SE
Cosmos 1869 3.4 23:32:41 10° NNW 23:36:45 65° W 23:38:08 38° SSW
CZ-2D R/B 3.8 23:33:00 10° NE 23:37:02 22° E 23:40:22 13° SE
FALCON 9 DEB 4.5 23:36:18 10° WNW 23:39:16 37° N 23:42:13 10° ENE
Cosmos 1943 3.6 23:36:45 28° S 23:39:29 52° ESE 23:44:58 10° NE
Cosmos 990 Rocket 4.0 23:35:08 10° NNW 23:40:18 67° WSW 23:42:50 30° S
SL-4 R/B 2.5 23:36:58 10° W 23:40:47 54° N 23:44:20 10° ENE
Lacrosse 4 Rocket 3.1 23:37:29 10° NNW 23:41:12 31° NE 23:44:50 10° ESE
EO 1 Del DPAF 3.1 23:37:41 10° NNE 23:41:26 85° ESE 23:42:38 41° S
USA 229 DEB 3.6 23:38:46 23° SW 23:43:01 85° SE 23:49:57 10° NE
USA 229 3.6 23:38:53 23° SW 23:43:07 84° SE 23:50:03 10° NE
NOSS 8 (F) 4.4 23:43:55 38° WSW 23:44:53 62° NW 23:47:50 10° NE
Cosmos 841 Rocket 4.2 23:44:06 25° SSE 23:46:35 42° ESE 23:51:25 10° NE
DELTA 2 R/B (1) 4.4 23:47:09 28° S 23:47:27 28° SSE 23:52:06 10° ESE
Cosmos 1603 3.8 23:46:12 28° S 23:49:09 64° ESE 23:54:46 10° NNE
Lacrosse 5 rocket 3.6 23:47:38 10° NW 23:50:36 23° N 23:53:34 10° ENE
NOSS 3-1 (C) 3.7 23:46:44 15° WSW 23:51:17 61° NW 23:57:45 10° NE
Cosmos 1953 Rocket 3.6 23:50:42 33° SSW 23:52:35 74° W 23:57:00 10° N
SL-16 R/B 3.4 23:46:43 10° SE 23:52:35 47° ENE 23:58:28 10° N
Cosmos 1242 Rocket 3.5 23:49:46 10° N 23:53:14 43° ENE 23:55:13 22° SE
Cosmos 1408 2.9 23:53:09 36° SW 23:54:21 54° WNW 23:58:01 10° N
FALCON 9 DEB 4.1 23:51:50 10° WNW 23:54:49 44° NNE 23:57:48 10° E
Cosmos 1825 2.1 23:54:28 39° S 23:55:47 86° ESE 23:59:35 10° N
